TimeEDT,TemperatureF,Dew PointF,Humidity,Sea Level PressureIn,VisibilityMPH,Wind Direction,Wind SpeedMPH,Gust SpeedMPH,PrecipitationIn,Events,Conditions,WindDirDegrees,DateUTC
12:15 AM,38.3,33.1,81,30.09,10.0,North,-9999.0,-,N/A,,Overcast,0,2013-04-02 04:15:00
12:35 AM,38.7,31.8,76,30.09,10.0,North,-9999.0,-,N/A,,Overcast,0,2013-04-02 04:35:00
12:55 AM,38.7,31.3,75,30.09,10.0,North,-9999.0,-,N/A,,Overcast,0,2013-04-02 04:55:00
1:15 AM,38.8,29.7,70,30.09,10.0,North,-9999.0,-,N/A,,Overcast,0,2013-04-02 05:15:00
1:35 AM,39.4,28.0,64,30.09,10.0,North,-9999.0,-,N/A,,Overcast,0,2013-04-02 05:35:00
1:55 AM,37.4,30.9,77,30.09,10.0,North,-9999.0,-,N/A,,Overcast,0,2013-04-02 05:55:00
2:15 AM,36.1,30.9,81,30.09,10.0,North,-9999.0,-,N/A,,Overcast,0,2013-04-02 06:15:00
2:35 AM,36.7,27.9,70,30.09,10.0,North,-9999.0,-,N/A,,Mostly Cloudy,0,2013-04-02 06:35:00
2:55 AM,35.1,27.1,73,30.09,10.0,North,-9999.0,-,N/A,,Scattered Clouds,0,2013-04-02 06:55:00
3:15 AM,34.0,27.5,77,30.10,10.0,North,-9999.0,-,N/A,,Mostly Cloudy,0,2013-04-02 07:15:00
3:35 AM,32.5,28.6,85,30.10,10.0,North,-9999.0,-,N/A,,Mostly Cloudy,0,2013-04-02 07:35:00
3:55 AM,32.0,28.8,88,30.10,10.0,North,-9999.0,-,N/A,,Mostly Cloudy,0,2013-04-02 07:55:00
4:15 AM,32.0,29.1,89,30.11,10.0,North,-9999.0,-,N/A,,Overcast,0,2013-04-02 08:15:00
4:35 AM,32.0,29.3,90,30.11,10.0,North,-9999.0,-,N/A,,Overcast,0,2013-04-02 08:35:00
4:55 AM,32.0,29.5,90,30.12,10.0,North,-9999.0,-,N/A,,Overcast,0,2013-04-02 08:55:00
5:15 AM,32.2,29.3,89,30.12,10.0,North,-9999.0,-,N/A,,Overcast,0,2013-04-02 09:15:00
5:35 AM,32.0,29.5,90,30.13,10.0,North,-9999.0,-,N/A,,Overcast,0,2013-04-02 09:35:00
5:55 AM,32.0,29.5,90,30.14,10.0,North,-9999.0,-,N/A,,Overcast,0,2013-04-02 09:55:00
6:15 AM,31.6,29.3,91,30.15,10.0,North,-9999.0,-,N/A,,Overcast,0,2013-04-02 10:15:00
6:35 AM,31.8,29.5,91,30.16,10.0,North,-9999.0,-,N/A,,Overcast,0,2013-04-02 10:35:00
6:55 AM,31.8,29.3,90,30.17,10.0,North,-9999.0,-,N/A,,Overcast,0,2013-04-02 10:55:00
7:15 AM,31.8,29.3,90,30.18,10.0,North,-9999.0,-,N/A,,Mostly Cloudy,0,2013-04-02 11:15:00
7:35 AM,30.7,28.8,92,30.19,10.0,North,-9999.0,-,N/A,,Scattered Clouds,0,2013-04-02 11:35:00
7:55 AM,30.6,28.4,92,30.20,10.0,North,-9999.0,-,N/A,,Scattered Clouds,0,2013-04-02 11:55:00
8:15 AM,30.6,27.9,90,30.20,10.0,North,-9999.0,-,N/A,,Clear,0,2013-04-02 12:15:00
8:35 AM,33.1,24.4,71,30.21,10.0,North,-9999.0,-,N/A,,Clear,0,2013-04-02 12:35:00
8:55 AM,34.2,24.1,67,30.21,10.0,North,-9999.0,-,N/A,,Clear,0,2013-04-02 12:55:00
9:15 AM,35.1,23.5,63,30.21,10.0,North,-9999.0,-,N/A,,Clear,0,2013-04-02 13:15:00
9:35 AM,37.0,22.6,56,30.22,10.0,North,-9999.0,-,N/A,,Clear,0,2013-04-02 13:35:00
9:55 AM,37.9,22.1,53,30.23,10.0,North,-9999.0,-,N/A,,Clear,0,2013-04-02 13:55:00
10:35 AM,39.0,21.6,50,30.23,10.0,North,-9999.0,-,N/A,,Clear,0,2013-04-02 14:35:00
10:55 AM,39.9,20.3,45,30.23,10.0,North,-9999.0,-,N/A,,Scattered Clouds,0,2013-04-02 14:55:00
11:15 AM,41.0,20.8,45,30.23,10.0,North,-9999.0,-,N/A,,Clear,0,2013-04-02 15:15:00
11:35 AM,41.5,19.4,41,30.23,10.0,North,-9999.0,-,N/A,,Clear,0,2013-04-02 15:35:00
11:55 AM,43.0,19.9,40,30.23,10.0,North,-9999.0,-,N/A,,Clear,0,2013-04-02 15:55:00
12:15 PM,43.2,19.4,39,30.23,10.0,North,-9999.0,-,N/A,,Clear,0,2013-04-02 16:15:00
12:35 PM,43.5,16.5,34,30.22,10.0,North,-9999.0,-,N/A,,Clear,0,2013-04-02 16:35:00
12:55 PM,44.4,18.9,36,30.22,10.0,North,-9999.0,-,N/A,,Clear,0,2013-04-02 16:55:00
1:15 PM,45.7,17.6,33,30.21,10.0,North,-9999.0,-,N/A,,Clear,0,2013-04-02 17:15:00
1:35 PM,45.5,16.9,32,30.21,10.0,North,-9999.0,-,N/A,,Clear,0,2013-04-02 17:35:00
1:55 PM,46.8,18.5,32,30.19,10.0,North,-9999.0,-,N/A,,Clear,0,2013-04-02 17:55:00
2:15 PM,48.0,17.1,29,30.18,10.0,North,-9999.0,-,N/A,,Clear,0,2013-04-02 18:15:00
2:55 PM,48.0,18.0,30,30.17,10.0,North,-9999.0,-,N/A,,Clear,0,2013-04-02 18:55:00
3:35 PM,49.1,17.2,28,30.15,10.0,North,-9999.0,-,N/A,,Clear,0,2013-04-02 19:35:00
3:55 PM,49.5,18.0,29,30.16,10.0,North,-9999.0,-,N/A,,Clear,0,2013-04-02 19:55:00
4:15 PM,49.6,16.3,27,30.16,10.0,North,-9999.0,-,N/A,,Clear,0,2013-04-02 20:15:00
4:35 PM,49.5,17.1,28,30.15,10.0,North,-9999.0,-,N/A,,Clear,0,2013-04-02 20:35:00
4:55 PM,50.0,15.1,25,30.15,10.0,North,-9999.0,-,N/A,,Clear,0,2013-04-02 20:55:00
5:15 PM,49.5,15.1,25,30.15,10.0,North,-9999.0,-,N/A,,Clear,0,2013-04-02 21:15:00
5:35 PM,50.4,16.5,26,30.15,10.0,North,-9999.0,-,N/A,,Clear,0,2013-04-02 21:35:00
5:55 PM,49.5,16.0,26,30.15,10.0,North,-9999.0,-,N/A,,Clear,0,2013-04-02 21:55:00
6:15 PM,48.7,15.1,26,30.16,10.0,North,-9999.0,-,N/A,,Clear,0,2013-04-02 22:15:00
6:35 PM,47.8,15.3,27,30.16,10.0,North,-9999.0,-,N/A,,Clear,0,2013-04-02 22:35:00
6:55 PM,46.8,15.1,28,30.17,10.0,North,-9999.0,-,N/A,,Clear,0,2013-04-02 22:55:00
7:15 PM,46.4,15.3,29,30.17,10.0,North,-9999.0,-,N/A,,Clear,0,2013-04-02 23:15:00
7:35 PM,44.1,17.8,35,30.16,10.0,North,-9999.0,-,N/A,,Clear,0,2013-04-02 23:35:00
7:55 PM,41.2,23.5,50,30.16,10.0,North,-9999.0,-,N/A,,Clear,0,2013-04-02 23:55:00
8:15 PM,38.7,23.5,55,30.17,10.0,North,-9999.0,-,N/A,,Clear,0,2013-04-03 00:15:00
8:35 PM,36.9,24.3,60,30.18,10.0,North,-9999.0,-,N/A,,Clear,0,2013-04-03 00:35:00
8:55 PM,35.8,24.1,62,30.18,10.0,North,-9999.0,-,N/A,,Clear,0,2013-04-03 00:55:00
9:15 PM,34.7,24.8,67,30.19,10.0,North,-9999.0,-,N/A,,Clear,0,2013-04-03 01:15:00
9:35 PM,33.8,25.5,72,30.20,10.0,North,-9999.0,-,N/A,,Clear,0,2013-04-03 01:35:00
9:55 PM,33.3,25.0,72,30.21,10.0,North,-9999.0,-,N/A,,Clear,0,2013-04-03 01:55:00
10:15 PM,32.7,24.8,73,30.21,10.0,North,-9999.0,-,N/A,,Clear,0,2013-04-03 02:15:00
10:35 PM,32.4,25.5,76,30.21,10.0,North,-9999.0,-,N/A,,Clear,0,2013-04-03 02:35:00
10:55 PM,32.2,26.6,80,30.22,10.0,North,-9999.0,-,N/A,,Clear,0,2013-04-03 02:55:00
11:15 PM,32.0,25.9,78,30.23,10.0,North,-9999.0,-,N/A,,Clear,0,2013-04-03 03:15:00
11:35 PM,31.8,26.2,80,30.23,10.0,North,-9999.0,-,N/A,,Clear,0,2013-04-03 03:35:00
11:55 PM,31.5,25.7,79,30.23,10.0,North,-9999.0,-,N/A,,Clear,0,2013-04-03 03:55:00